Regional Weather Roundup
Issued by NWS

Home | Current Version | Previous Version | Graphics & Text | Print | Product List | Glossary On
Versions: 1 2 3 4 5 6 7 8 9 10 11 12 13 14 15 16 17 18 19 20 21 22 23 24 25 26 27 28 29 30 31 32 33 34 35 36 37 38 39 40 41 42 43 44 45 46 47 48 49 50
423
ASUS43 KMPX 230710
RWRMN
WEATHER ROUNDUP FOR MINNESOTA
NATIONAL WEATHER SERVICE TWIN CITIES/CHANHASSEN MN
200 AM CDT THU MAR 23 2017


NOTE: "FAIR" INDICATES FEW OR NO CLOUDS BELOW 12,000 FEET WITH NO
SIGNIFICANT WEATHER AND/OR OBSTRUCTIONS TO VISIBILITY. N/A MEANS
CURRENT SKY AND/OR WEATHER CONDITIONS ARE NOT AVAILABLE.

MNZ060>063-068>070-230800-
   Twin Cities Metro

CITY           SKY/WX    TMP DP  RH WIND       PRES   REMARKS
TWIN CITIES    CLOUDY    36  18  48 SE9       30.25F
ST PAUL        CLOUDY    37  17  44 SE13G23   30.26F
CRYSTAL        CLOUDY    36  17  46 SE15      30.23F
BLAINE         MOCLDY    37  18  44 SE10G17   30.24S
LAKEVILLE      CLOUDY    34  21  60 SE8       30.24F WCI  27
EDEN PRAIRIE   CLOUDY    38  19  46 SE14      30.22F
SOUTH ST PAUL  CLOUDY    37  17  44 SE8       30.25F
LAKE ELMO      CLOUDY    36  18  48 SE10      30.27S
$$
MNZ001>005-007-008-013>017-022>024-027-028-230800-
   Northwest Minnesota

CITY           SKY/WX    TMP DP  RH WIND       PRES   REMARKS
BEMIDJI        CLOUDY    32  18  56 S15G22    30.08F WCI  22
HALLOCK        CLOUDY    34  27  75 S17       29.99F WCI  23
ROSEAU         CLOUDY    34  21  60 SE14      30.03F WCI  24
WARROAD        CLOUDY    32  21  64 SE12G18   30.05F WCI  23
THIEF RVR FALL   N/A    N/A N/A N/A MISG        N/A
CROOKSTON      PTCLDY    34  25  69 S16G22    30.01F WCI  23
FOSSTON        CLOUDY    34  19  55 S17G23    30.03F WCI  23
DETROIT LAKES  CLOUDY    34  23  64 SE18G24   30.05F WCI  23
MOORHEAD       PTCLDY    36  23  60 S22G29    30.02F
PARK RAPIDS    CLOUDY    34  17  50 S20       30.09F WCI  23
MAHNOMEN       FAIR      34  21  60 S16G30    30.02F WCI  23
$$
MNZ006-009>011-018-025>026-230800-
   North Central Minnesota

CITY           SKY/WX    TMP DP  RH WIND       PRES   REMARKS
BAUDETTE       CLOUDY    32  18  56 SE13      30.07F WCI  22
FLAG ISLAND    CLOUDY    28  21  74 SE18      30.05F WCI  16
INTL FALLS     CLOUDY    29  22  75 SE10      30.15F WCI  20
WASKISH        CLOUDY    34  19  55 SE8G17    30.09F WCI  27
BIG FORK       CLOUDY    34  16  47 S8        30.15F WCI  27
LONGVILLE      CLOUDY    32  18  55 SE9G16    30.15F WCI  24
GRAND RAPIDS   CLOUDY    32  18  56 S12       30.20F WCI  23
CRANE LAKE     LGT SNOW  25  23  93 CALM      30.24F
ORR            CLOUDY    28  16  59 CALM      30.16F
COOK           CLOUDY    28  19  69 SE6       30.21F WCI  22
WALKER         CLOUDY    32  17  53 SE12G17   30.10F WCI  23
$$
MNZ012-019>021-037-230800-
   Northeast Minnesota

CITY           SKY/WX    TMP DP  RH WIND       PRES   REMARKS
DULUTH         FLURRIES  30  21  69 SE7       30.24S WCI  23
ELY            FLURRIES  27  18  69 SE8       30.23F WCI  18
HIBBING        CLOUDY    28  16  60 S7        30.21S WCI  21
EVELETH        CLOUDY    30  15  54 SE7       30.23S WCI  23
DULUTH HARBOR  CLOUDY    34  23  64 CALM      30.29S
TWO HARBORS    CLOUDY    30  25  80 NE3       30.25F
SILVER BAY     CLOUDY    28  25  86 CALM      30.26F
GRAND MARAIS     N/A     30  22  72 NE3       30.33F
G MARAIS ARPRT CLOUDY    21  18  86 SE5       30.26F WCI  15
$$
MNZ029>031-032-039>041-046>048-054>057-064-230800-
   West Central Minnesota

CITY           SKY/WX    TMP DP  RH WIND       PRES   REMARKS
FERGUS FALLS   CLOUDY    36  23  60 S23G30    30.09
WHEATON        CLOUDY    34  25  69 SE17G23   30.06F WCI  23
MORRIS         CLOUDY    36  25  64 SE22G29   30.06F
ALEXANDRIA     CLOUDY    35  21  56 SE18      30.12F WCI  24
ELBOW LAKE     CLOUDY    35  23  61 E23G31    30.06F WCI  23
WADENA         CLOUDY    34  21  60 S18       30.09F WCI  23
GLENWOOD       CLOUDY    36  21  55 SE20      30.11F
APPLETON       CLOUDY    37  25  60 SE13G20   30.08F
BENSON         CLOUDY    37  19  48 S16       30.12F
ORTONVILLE     MOCLDY    36  25  64 SE18      30.05F
MADISON        CLOUDY    39  28  65 SE18      30.07F
WILLMAR        CLOUDY    37  25  60 SE16      30.14F
$$
MNZ033>034-036-042>043-049>051-058-059-230800-
   Central Minnesota

CITY           SKY/WX    TMP DP  RH WIND       PRES   REMARKS
ST CLOUD       CLOUDY    35  20  54 SE12      30.19F WCI  27
SAUK CENTRE    CLOUDY    34  22  60 SE10      30.15F WCI  26
PAYNESVILLE      N/A     36  21  55 SE16G23   30.16F
AITKIN         MIX PCPN  36  14  41 S15       30.20S
PINE RIVER     CLOUDY    34  19  55 SE12      30.18F WCI  25
BRAINERD       CLOUDY    34  15  46 S10G18    30.18F WCI  26
STAPLES        CLOUDY    34  18  51 S13G18    30.13F WCI  25
LONG PRAIRIE   CLOUDY    34  21  60 E16G22    30.14F WCI  23
LITTLE FALLS   CLOUDY    34  18  51 SE10G17   30.18F WCI  26
LITCHFIELD     CLOUDY    37  21  52 SE12G18   30.18F
BUFFALO        CLOUDY    36  19  50 SE8       30.23S
MAPLE LAKE     CLOUDY    37  24  58 SE9G16    30.21F
HUTCHINSON     CLOUDY    37  24  59 SE12      30.20F
$$
MNZ037-044-045-052-053-230800-
   East Central Minnesota

CITY           SKY/WX    TMP DP  RH WIND       PRES   REMARKS
PRINCETON      CLOUDY    37  19  48 SE12      30.22F
MORA           CLOUDY    34  16  47 S6        30.26R WCI  29
CAMBRIDGE      MIX PCPN  37  19  48 SE8       30.23S
RUSH CITY      CLOUDY    35  13  40 SE9       30.25F WCI  28
MOOSE LAKE     CLOUDY    32  19  59 SE3       30.22S
HINCKLEY       CLOUDY    34  16  47 SE8       30.25S WCI  27
CLOQUET        CLOUDY    30  16  55 SE5       30.23F WCI  25
MCGREGOR       CLOUDY    32  19  59 SE7       30.22S WCI  26
$$
MNZ071>073-080-081-089-090-097-098-230800-
   Southwest Minnesota

CITY           SKY/WX    TMP DP  RH WIND       PRES   REMARKS
MONTEVIDEO     CLOUDY    37  25  60 S16       30.11F
GRANITE FALLS  CLOUDY    38  27  62 SE16      30.11F
CANBY          CLOUDY    39  27  62 SE14      30.07F
MARSHALL       CLOUDY    38  25  59 S21       30.08F
REDWOOD FALLS  CLOUDY    37  24  59 SE18      30.14F
OLIVIA         MOCLDY    36  25  64 SE15G22   30.14F
PIPESTONE      CLOUDY    37  23  56 S18G24    30.04F
WINDOM         CLOUDY    37  25  60 SE14G21   30.13F
WORTHINGTON    CLOUDY    37  24  59 SE16G24   30.10F
JACKSON        CLOUDY    36  25  64 SE13      30.15F
TRACY          CLOUDY    38  27  63 S18       30.09F
SLAYTON        CLOUDY    35  26  71 SE18G24   30.08F WCI  24
$$
MNZ065>067-074>077-082>085-091>093-230800-
   South Central Minnesota

CITY           SKY/WX    TMP DP  RH WIND       PRES   REMARKS
MANKATO        CLOUDY    36  22  56 S16       30.21S
NEW ULM        CLOUDY    36  21  55 S15G21    30.18F
ST JAMES       CLOUDY    36  27  69 SE14      30.19F
FAIRMONT       CLOUDY    36  24  62 SE16      30.19F
GLENCOE        CLOUDY    38  25  60 SE10G16   30.20S
FARIBAULT      CLOUDY    36  21  55 SE12G20   30.24S
OWATONNA       CLOUDY    36  21  55 SE16G22   30.23S
WASECA         CLOUDY    36  25  64 SE13G23   30.24S
ALBERT LEA     CLOUDY    36  21  55 S15G22    30.23R
$$
MNZ078>079-086>088-094>096-230800-
   Southeast Minnesota

CITY           SKY/WX    TMP DP  RH WIND       PRES   REMARKS
ROCHESTER      CLOUDY    35  22  58 S23G29    30.25F WCI  23
RED WING       CLOUDY    37  12  35 SE7       30.27F
STANTON        CLOUDY    38  20  49 SE13      30.24F
DODGE CENTER   CLOUDY    34  23  64 SE18G24   30.23F WCI  23
WINONA         CLOUDY    37  18  44 SE9       30.32S
AUSTIN         CLOUDY    36  23  60 SE8G18    30.25S
PRESTON        CLOUDY    34  21  58 S13       30.28S WCI  25
$$
ABBREVIATIONS USED IN REMARKS
   TC - TEMPERATURES IN CELSIUS
  WCI - WIND CHILL INDEX
   HX - HEAT INDEX
  VSB - VISIBILITY
$$




USA.gov is the U.S. government's official web portal to all federal, state and local government web resources and services.